Weather History for K4O4 - October, 2013

Change the Weather History Date:

Wednesday, October 9, 2013

  Actual Average (KDEQ) Record (KDEQ)
Temperature  
Mean Temperature 63 °F 65 °F  
Max Temperature 80 °F 78 °F 96 °F (1963)
Min Temperature 46 °F 52 °F 30 °F (2000)
Degree Days  
Heating Degree Days 2 3  
Month to date heating degree days 19  
Since 1 July heating degree days 28  
Cooling Degree Days 0 3  
Month to date cooling degree days 31  
Year to date cooling degree days 1896  
Growing Degree Days 13 (Base 50)    
Moisture  
Dew Point 49 °F    
Average Humidity 65    
Maximum Humidity 94    
Minimum Humidity 34    
Precipitation  
Precipitation 0.00 in 0.12 in 4.18 in (1993)
Month to date precipitation 1.36  
Year to date precipitation 36.56  
Snow  
Snow 0.00 in - - ()
Month to date snowfall  
Since 1 July snowfall  
Since 1 September snowfall  
Snow Depth -    
Sea Level Pressure  
Sea Level Pressure 30.07 in    
Wind  
Wind Speed 5 mph (ESE)    
Max Wind Speed 8 mph    
Max Gust Speed -    
Visibility 10 miles    
Events      
T = Trace of Precipitation, MM = Missing Value Source: NWS Daily Summary

Daily Weather History Graph

Daily Weather History Graph

Search for Another Location

Airport or City:

Trip Planner

Search our weather history database for the weather conditions in past years. The results will help you decide how hot, cold, wet, or windy it might be!

Date:

Astronomy

Oct. 09, 2013 Rise Set
Actual Time 7:19 AM CDT 6:52 PM CDT
Civil Twilight 6:54 AM CDT 7:17 PM CDT
Nautical Twilight 6:25 AM CDT 7:46 PM CDT
Astronomical Twilight 5:57 AM CDT 8:15 PM CDT
Moon 12:05 PM CDT (10/9) 10:38 PM CDT (10/9)
Length of Visible Light 12h 22m
Length of Day
11h 32m
Waxing Crescent, 25% of the Moon is Illuminated
Oct 9
Waxing Crescent
Oct 11
First Quarter
Oct 18
Full
Oct 26
Last Quarter
Nov 3
New

Hourly Weather History & Observations

Time (CDT) Temp. Dew Point Humidity Pressure Visibility Wind Dir Wind Speed Gust Speed Precip Events Conditions
12:15 AM 53.6 °F 48.2 °F 82% 30.06 in 10.0 mi ENE 6.9 mph - N/A   Clear
12:35 AM 53.6 °F 50.0 °F 88% 30.06 in 10.0 mi East 5.8 mph - N/A   Clear
12:55 AM 51.8 °F 48.2 °F 88% 30.06 in 10.0 mi East 5.8 mph - N/A   Clear
1:15 AM 51.8 °F 50.0 °F 94% 30.06 in 10.0 mi East 6.9 mph - N/A   Clear
1:35 AM 51.8 °F 48.2 °F 88% 30.06 in 2.5 mi East 5.8 mph - N/A   Clear
1:57 AM 51.8 °F 48.2 °F 88% 30.07 in 10.0 mi East 5.8 mph - N/A   Clear
2:17 AM 51.8 °F 48.2 °F 88% 30.06 in 10.0 mi East 5.8 mph - N/A   Clear
2:35 AM 51.8 °F 46.4 °F 82% 30.06 in 10.0 mi ENE 5.8 mph - N/A   Clear
2:55 AM 51.8 °F 46.4 °F 82% 30.06 in 10.0 mi East 8.1 mph - N/A   Clear
3:35 AM 50.0 °F 46.4 °F 87% 30.05 in 10.0 mi East 4.6 mph - N/A   Clear
3:38 AM 51.8 °F 46.4 °F 82% 30.05 in 10.0 mi East 4.6 mph - N/A   Clear
3:57 AM 51.8 °F 46.4 °F 82% 30.05 in 10.0 mi East 5.8 mph - N/A   Clear
4:15 AM 50.0 °F 46.4 °F 87% 30.05 in 10.0 mi East 6.9 mph - N/A   Clear
4:35 AM 50.0 °F 46.4 °F 87% 30.05 in 10.0 mi East 5.8 mph - N/A   Clear
4:55 AM 50.0 °F 44.6 °F 82% 30.05 in 10.0 mi East 5.8 mph - N/A   Clear
5:15 AM 50.0 °F 44.6 °F 82% 30.06 in 10.0 mi ENE 5.8 mph - N/A   Clear
5:35 AM 50.0 °F 44.6 °F 82% 30.06 in 10.0 mi ENE 5.8 mph - N/A   Clear
6:15 AM 50.0 °F 44.6 °F 82% 30.07 in 10.0 mi ENE 6.9 mph - N/A   Clear
6:35 AM 50.0 °F 44.6 °F 82% 30.08 in 10.0 mi ENE 4.6 mph - N/A   Clear
6:55 AM 50.0 °F 44.6 °F 82% 30.08 in 10.0 mi ENE 5.8 mph - N/A   Clear
7:15 AM 50.0 °F 44.6 °F 82% 30.09 in 10.0 mi Calm Calm - N/A   Clear
7:35 AM 46.4 °F 44.6 °F 93% 30.10 in 10.0 mi Calm Calm - N/A   Clear
7:55 AM 50.0 °F 46.4 °F 87% 30.10 in 10.0 mi ENE 5.8 mph - N/A   Clear
8:15 AM 51.8 °F 46.4 °F 82% 30.10 in 10.0 mi ENE 5.8 mph - N/A   Clear
8:35 AM 53.6 °F 46.4 °F 77% 30.11 in 10.0 mi ENE 6.9 mph - N/A   Clear
8:55 AM 55.4 °F 46.4 °F 72% 30.12 in 10.0 mi East 4.6 mph - N/A   Clear
9:15 AM 59.0 °F 48.2 °F 67% 30.12 in 10.0 mi East 3.5 mph - N/A   Clear
9:35 AM 60.8 °F 50.0 °F 68% 30.13 in 10.0 mi East 3.5 mph - N/A   Clear
9:55 AM 62.6 °F 50.0 °F 63% 30.13 in 10.0 mi ENE 3.5 mph - N/A   Clear
10:15 AM 64.4 °F 51.8 °F 64% 30.13 in 10.0 mi Calm Calm - N/A   Clear
10:35 AM 68.0 °F 51.8 °F 56% 30.13 in 10.0 mi South 4.6 mph - N/A   Clear
10:55 AM 69.8 °F 51.8 °F 53% 30.13 in 10.0 mi South 3.5 mph - N/A   Clear
11:15 AM 69.8 °F 51.8 °F 53% 30.13 in 10.0 mi South 5.8 mph - N/A   Clear
11:35 AM 71.6 °F 51.8 °F 50% 30.13 in 10.0 mi SSE 5.8 mph - N/A   Clear
11:55 AM 71.6 °F 51.8 °F 50% 30.12 in 10.0 mi Calm Calm - N/A   Clear
12:15 PM 73.4 °F 50.0 °F 44% 30.12 in 10.0 mi SSE 3.5 mph - N/A   Clear
12:35 PM 73.4 °F 50.0 °F 44% 30.11 in 10.0 mi Calm Calm - N/A   Clear
12:55 PM 77.0 °F 50.0 °F 39% 30.11 in 10.0 mi SSW 3.5 mph - N/A   Clear
1:15 PM 77.0 °F 50.0 °F 39% 30.10 in 10.0 mi Calm Calm - N/A   Clear
1:35 PM 78.8 °F 51.8 °F 39% 30.08 in 10.0 mi Calm Calm - N/A   Clear
1:55 PM 78.8 °F 50.0 °F 36% 30.08 in 10.0 mi Calm Calm - N/A   Clear
2:15 PM 78.8 °F 50.0 °F 36% 30.07 in 10.0 mi South 4.6 mph - N/A   Clear
2:35 PM 78.8 °F 50.0 °F 36% 30.06 in 10.0 mi Calm Calm - N/A   Clear
2:55 PM 80.6 °F 50.0 °F 34% 30.05 in 10.0 mi Calm Calm - N/A   Clear
3:15 PM 80.6 °F 50.0 °F 34% 30.04 in 10.0 mi SSE 3.5 mph - N/A   Clear
3:55 PM 80.6 °F 50.0 °F 34% 30.04 in 10.0 mi Calm Calm - N/A   Clear
4:15 PM 80.6 °F 50.0 °F 34% 30.04 in 10.0 mi South 3.5 mph - N/A   Clear
4:35 PM 78.8 °F 50.0 °F 36% 30.04 in 10.0 mi SE 5.8 mph - N/A   Clear
4:55 PM 78.8 °F 48.2 °F 34% 30.04 in 10.0 mi ESE 3.5 mph - N/A   Clear
5:15 PM 78.8 °F 50.0 °F 36% 30.03 in 10.0 mi SE 5.8 mph - N/A   Clear
5:35 PM 78.8 °F 51.8 °F 39% 30.04 in 10.0 mi ESE 4.6 mph - N/A   Clear
5:55 PM 78.8 °F 50.0 °F 36% 30.03 in 10.0 mi ESE 8.1 mph - N/A   Clear
6:15 PM 73.4 °F 51.8 °F 47% 30.04 in 10.0 mi ESE 4.6 mph - N/A   Clear
7:18 PM 68.0 °F 51.8 °F 56% 30.04 in 10.0 mi ESE 5.8 mph - N/A   Clear
7:35 PM 64.4 °F 51.8 °F 64% 30.04 in 10.0 mi ESE 4.6 mph - N/A   Clear
7:55 PM 64.4 °F 51.8 °F 64% 30.04 in 10.0 mi ESE 5.8 mph - N/A   Clear
8:15 PM 64.4 °F 51.8 °F 64% 30.04 in 10.0 mi ESE 6.9 mph - N/A   Clear
8:35 PM 62.6 °F 53.6 °F 72% 30.04 in 10.0 mi ESE 6.9 mph - N/A   Clear
8:55 PM 62.6 °F 53.6 °F 72% 30.05 in 10.0 mi ESE 6.9 mph - N/A   Clear
9:15 PM 62.6 °F 53.6 °F 72% 30.04 in 10.0 mi ESE 6.9 mph - N/A   Clear
9:35 PM 62.6 °F 53.6 °F 72% 30.05 in 10.0 mi ESE 6.9 mph - N/A   Clear
9:55 PM 60.8 °F 51.8 °F 72% 30.06 in 10.0 mi ESE 8.1 mph - N/A   Clear
10:15 PM 60.8 °F 51.8 °F 72% 30.06 in 10.0 mi ESE 5.8 mph - N/A   Clear
10:35 PM 60.8 °F 51.8 °F 72% 30.07 in 10.0 mi ESE 5.8 mph - N/A   Clear
10:55 PM 60.8 °F 51.8 °F 72% 30.07 in 10.0 mi ESE 6.9 mph - N/A   Clear
11:18 PM 60.8 °F 51.8 °F 72% 30.07 in 10.0 mi ESE 6.9 mph - N/A   Clear
11:55 PM 59.0 °F 51.8 °F 77% 30.07 in 10.0 mi East 6.9 mph - N/A   Clear